RPB5995 MMUN-SKRG

Flight info

Callsign RPB5995
Flight time 2h 49m
Altitude 41000
Route TAKUX2A TAKUX UM782 MEVUB UP406 AKPEK AKPEK4C
Aircraft A388/J-SADE2E3FGHIJ3J4J5M1RWXY/LB1D1

Departure

Time 2026-05-05 03:51
Airport Cancún International Airport (MMUN)

Arrival

Time 2026-05-05 06:40
Airport Jose Maria Córdova International Airport (SKRG)
Time Latitude Longitude Altitude Speed Heading
2026-05-05 02:53 21.03920 -86.87688 20 ft 0 kts 45°
2026-05-05 03:22 21.03913 -86.87696 21 ft 4 kts 39°
2026-05-05 03:22 21.03890 -86.87709 21 ft 4 kts 10°
2026-05-05 03:22 21.03864 -86.87709 23 ft 4 kts 337°
2026-05-05 03:22 21.03846 -86.87695 23 ft 1 kts 305°
2026-05-05 03:23 21.03845 -86.87695 24 ft 1 kts 305°
2026-05-05 03:28 21.03853 -86.87706 21 ft 5 kts 305°
2026-05-05 03:28 21.03886 -86.87758 21 ft 11 kts 304°
2026-05-05 03:28 21.03930 -86.87824 21 ft 11 kts 304°
2026-05-05 03:28 21.03971 -86.87891 21 ft 11 kts 304°
2026-05-05 03:29 21.04013 -86.87955 21 ft 10 kts 304°
2026-05-05 03:29 21.04052 -86.88019 21 ft 10 kts 303°
2026-05-05 03:29 21.04090 -86.88079 21 ft 3 kts 304°
2026-05-05 03:35 21.04098 -86.88090 21 ft 0 kts 305°
2026-05-05 03:36 21.04100 -86.88093 21 ft 1 kts 305°
2026-05-05 03:36 21.04101 -86.88095 21 ft 0 kts 305°
2026-05-05 03:43 21.04102 -86.88097 21 ft 3 kts 305°
2026-05-05 03:43 21.04121 -86.88127 23 ft 5 kts 303°
2026-05-05 03:43 21.04141 -86.88158 21 ft 5 kts 303°
2026-05-05 03:43 21.04161 -86.88192 22 ft 6 kts 303°
2026-05-05 03:44 21.04193 -86.88243 22 ft 9 kts 304°
2026-05-05 03:44 21.04227 -86.88297 22 ft 9 kts 304°
2026-05-05 03:44 21.04261 -86.88350 23 ft 8 kts 304°
2026-05-05 03:44 21.04293 -86.88401 23 ft 8 kts 303°
2026-05-05 03:45 21.04323 -86.88451 23 ft 8 kts 304°
2026-05-05 03:45 21.04354 -86.88499 25 ft 8 kts 304°
2026-05-05 03:45 21.04383 -86.88545 25 ft 7 kts 303°
2026-05-05 03:45 21.04410 -86.88590 26 ft 7 kts 303°
2026-05-05 03:46 21.04438 -86.88633 24 ft 7 kts 304°
2026-05-05 03:46 21.04464 -86.88676 26 ft 7 kts 303°
2026-05-05 03:46 21.04490 -86.88718 25 ft 7 kts 303°
2026-05-05 03:46 21.04515 -86.88759 26 ft 7 kts 304°
2026-05-05 03:47 21.04541 -86.88799 24 ft 6 kts 304°
2026-05-05 03:47 21.04565 -86.88839 24 ft 6 kts 303°
2026-05-05 03:47 21.04589 -86.88877 24 ft 6 kts 303°
2026-05-05 03:47 21.04612 -86.88916 24 ft 6 kts 302°
2026-05-05 03:48 21.04634 -86.88954 25 ft 6 kts 297°
2026-05-05 03:48 21.04642 -86.88985 24 ft 0 kts 270°
2026-05-05 03:48 21.04642 -86.88986 24 ft 1 kts 261°
2026-05-05 03:48 21.04626 -86.89010 26 ft 6 kts 222°
2026-05-05 03:49 21.04595 -86.89032 25 ft 4 kts 212°
2026-05-05 03:49 21.04584 -86.89040 25 ft 0 kts 212°
2026-05-05 03:49 21.04582 -86.89041 25 ft 0 kts 212°
2026-05-05 03:50 21.04580 -86.89042 23 ft 4 kts 212°
2026-05-05 03:50 21.04490 -86.89020 22 ft 14 kts 127°
2026-05-05 03:50 21.04323 -86.88764 26 ft 82 kts 124°
2026-05-05 03:51 21.03855 -86.88032 44 ft 151 kts 126°
2026-05-05 03:51 21.03132 -86.87051 501 ft 181 kts 127°
2026-05-05 03:51 21.02372 -86.85838 1106 ft 205 kts 126°
2026-05-05 03:51 21.01602 -86.84615 2223 ft 199 kts 123°
2026-05-05 03:52 21.00895 -86.83267 2541 ft 222 kts 119°
2026-05-05 03:52 21.00154 -86.81735 2893 ft 237 kts 118°
2026-05-05 03:52 20.99391 -86.80139 3454 ft 243 kts 118°
2026-05-05 03:52 20.98616 -86.78532 4136 ft 244 kts 118°
2026-05-05 03:53 20.97832 -86.76913 4760 ft 246 kts 118°
2026-05-05 03:53 20.97042 -86.75271 4952 ft 254 kts 117°
2026-05-05 03:53 20.96216 -86.73549 4978 ft 267 kts 118°
2026-05-05 03:53 20.95292 -86.71779 5104 ft 271 kts 124°
2026-05-05 03:54 20.94217 -86.70127 5687 ft 277 kts 126°
2026-05-05 03:54 20.93081 -86.68451 6452 ft 279 kts 126°
2026-05-05 03:54 20.91931 -86.66754 7111 ft 285 kts 126°
2026-05-05 03:54 20.90760 -86.65017 7763 ft 290 kts 126°
2026-05-05 03:55 20.89576 -86.63249 8341 ft 291 kts 126°
2026-05-05 03:55 20.88397 -86.61481 8488 ft 295 kts 125°
2026-05-05 03:55 20.87199 -86.59678 8514 ft 299 kts 125°
2026-05-05 03:55 20.86008 -86.57883 8507 ft 299 kts 125°
2026-05-05 03:56 20.84812 -86.56079 8502 ft 296 kts 126°
2026-05-05 03:56 20.83624 -86.54286 8513 ft 294 kts 126°
2026-05-05 03:56 20.82442 -86.52502 8512 ft 293 kts 126°
2026-05-05 03:56 20.81266 -86.50724 8520 ft 292 kts 126°
2026-05-05 03:57 20.80088 -86.48946 8516 ft 293 kts 126°
2026-05-05 03:57 20.78907 -86.47165 8520 ft 294 kts 126°
2026-05-05 03:57 20.77721 -86.45376 8515 ft 295 kts 126°
2026-05-05 03:57 20.76535 -86.43588 8515 ft 295 kts 125°
2026-05-05 03:58 20.75344 -86.41795 8514 ft 295 kts 125°
2026-05-05 03:58 20.74159 -86.40009 8523 ft 297 kts 125°
2026-05-05 03:58 20.72988 -86.38244 8815 ft 288 kts 126°
2026-05-05 03:58 20.71816 -86.36480 9395 ft 296 kts 125°
2026-05-05 03:59 20.70611 -86.34666 9926 ft 303 kts 125°
2026-05-05 03:59 20.69370 -86.32825 10412 ft 308 kts 130°
2026-05-05 03:59 20.67724 -86.31380 10880 ft 309 kts 153°
2026-05-05 03:59 20.65790 -86.30363 11410 ft 311 kts 156°
2026-05-05 04:00 20.63824 -86.29372 11906 ft 314 kts 156°
2026-05-05 04:00 20.61840 -86.28376 12417 ft 316 kts 156°
2026-05-05 04:00 20.59846 -86.27371 12935 ft 317 kts 156°
2026-05-05 04:00 20.57851 -86.26361 13459 ft 318 kts 156°
2026-05-05 04:01 20.55845 -86.25340 13968 ft 319 kts 156°
2026-05-05 04:01 20.53835 -86.24315 14439 ft 321 kts 156°
2026-05-05 04:01 20.51833 -86.23292 14922 ft 326 kts 156°
2026-05-05 04:01 20.49770 -86.22237 15418 ft 331 kts 156°
2026-05-05 04:02 20.47674 -86.21164 15919 ft 336 kts 156°
2026-05-05 04:02 20.45549 -86.20077 16429 ft 340 kts 156°
2026-05-05 04:02 20.43400 -86.18977 16933 ft 344 kts 156°
2026-05-05 04:02 20.41227 -86.17864 17465 ft 347 kts 156°
2026-05-05 04:03 20.39040 -86.16745 17993 ft 350 kts 156°
2026-05-05 04:03 20.36863 -86.15631 18490 ft 352 kts 156°
2026-05-05 04:03 20.34644 -86.14495 18946 ft 354 kts 156°
2026-05-05 04:03 20.32412 -86.13354 19427 ft 356 kts 156°
2026-05-05 04:04 20.30175 -86.12210 19891 ft 359 kts 156°
2026-05-05 04:04 20.27883 -86.11039 19992 ft 368 kts 155°
2026-05-05 04:04 20.25603 -86.09874 20005 ft 367 kts 156°
2026-05-05 04:04 20.23299 -86.08698 20008 ft 367 kts 156°
2026-05-05 04:05 20.21073 -86.07353 19994 ft 369 kts 142°
2026-05-05 04:05 20.19147 -86.05562 20028 ft 368 kts 137°
2026-05-05 04:05 20.17267 -86.03699 20014 ft 369 kts 137°
2026-05-05 04:05 20.15389 -86.01835 20015 ft 369 kts 137°
2026-05-05 04:06 20.13493 -85.99975 20011 ft 370 kts 138°
2026-05-05 04:06 20.11612 -85.98152 20011 ft 370 kts 138°
2026-05-05 04:06 20.09674 -85.96288 20012 ft 370 kts 138°
2026-05-05 04:06 20.07782 -85.94476 20007 ft 370 kts 138°
2026-05-05 04:07 20.05866 -85.92644 20005 ft 370 kts 138°
2026-05-05 04:07 20.03945 -85.90808 20007 ft 370 kts 138°
2026-05-05 04:07 20.02022 -85.88979 20013 ft 369 kts 139°
2026-05-05 04:07 20.00079 -85.87191 20005 ft 369 kts 140°
2026-05-05 04:08 19.98115 -85.85415 20039 ft 376 kts 140°
2026-05-05 04:08 19.96103 -85.83606 20140 ft 390 kts 140°
2026-05-05 04:08 19.93995 -85.81710 20232 ft 404 kts 140°
2026-05-05 04:08 19.91815 -85.79747 20327 ft 417 kts 140°
2026-05-05 04:09 19.89570 -85.77721 20456 ft 428 kts 140°
2026-05-05 04:09 19.87283 -85.75657 20751 ft 433 kts 140°
2026-05-05 04:09 19.84981 -85.73576 21162 ft 434 kts 140°
2026-05-05 04:09 19.82698 -85.71513 21561 ft 436 kts 139°
2026-05-05 04:10 19.80378 -85.69415 21926 ft 439 kts 139°
2026-05-05 04:10 19.78038 -85.67301 22269 ft 442 kts 139°
2026-05-05 04:10 19.76479 -85.65892 22511 ft 444 kts 139°
2026-05-05 04:10 19.73347 -85.63064 22980 ft 447 kts 139°
2026-05-05 04:11 19.70968 -85.60917 23314 ft 450 kts 139°
2026-05-05 04:11 19.69379 -85.59483 23552 ft 452 kts 139°
2026-05-05 04:11 19.66978 -85.57318 23819 ft 454 kts 139°
2026-05-05 04:11 19.64558 -85.55136 24095 ft 457 kts 139°
2026-05-05 04:12 19.62139 -85.52956 24374 ft 459 kts 139°
2026-05-05 04:12 19.59702 -85.50761 24647 ft 462 kts 139°
2026-05-05 04:12 19.57238 -85.48543 24918 ft 464 kts 139°
2026-05-05 04:12 19.54766 -85.46318 25186 ft 467 kts 139°
2026-05-05 04:13 19.52308 -85.44107 25446 ft 469 kts 139°
2026-05-05 04:13 19.49810 -85.41861 25748 ft 470 kts 139°
2026-05-05 04:13 19.47326 -85.39628 26222 ft 466 kts 139°
2026-05-05 04:13 19.44849 -85.37403 26681 ft 464 kts 139°
2026-05-05 04:14 19.42394 -85.35199 27149 ft 461 kts 139°
2026-05-05 04:14 19.39987 -85.33038 27612 ft 458 kts 139°
2026-05-05 04:14 19.37535 -85.30838 28107 ft 455 kts 139°
2026-05-05 04:14 19.35135 -85.28686 28598 ft 452 kts 139°
2026-05-05 04:15 19.32756 -85.26552 29100 ft 448 kts 139°
2026-05-05 04:15 19.30389 -85.24432 29610 ft 445 kts 139°
2026-05-05 04:15 19.28046 -85.22332 30115 ft 442 kts 139°
2026-05-05 04:15 19.25691 -85.20224 30561 ft 438 kts 139°
2026-05-05 04:16 19.23377 -85.18152 31003 ft 433 kts 139°
2026-05-05 04:16 19.21113 -85.16125 31467 ft 429 kts 139°
2026-05-05 04:16 19.18829 -85.14082 31927 ft 424 kts 140°
2026-05-05 04:16 19.16599 -85.12088 32393 ft 418 kts 140°
2026-05-05 04:17 19.14414 -85.10134 32861 ft 412 kts 140°
2026-05-05 04:17 19.12246 -85.08196 33342 ft 405 kts 140°
2026-05-05 04:17 19.07847 -85.04269 33102 ft 429 kts 141°
2026-05-05 04:18 19.03211 -85.00133 33145 ft 442 kts 141°
2026-05-05 04:18 18.98435 -84.95874 33230 ft 455 kts 141°
2026-05-05 04:19 18.93543 -84.91515 33471 ft 462 kts 141°
2026-05-05 04:19 18.91115 -84.89352 33717 ft 462 kts 141°
2026-05-05 04:19 18.88653 -84.87159 33961 ft 463 kts 141°
2026-05-05 04:20 18.86183 -84.84961 34149 ft 464 kts 141°
2026-05-05 04:20 18.83711 -84.82762 34306 ft 466 kts 141°
2026-05-05 04:20 18.81220 -84.80548 34463 ft 468 kts 141°
2026-05-05 04:20 18.78734 -84.78338 34630 ft 469 kts 142°
2026-05-05 04:21 18.76234 -84.76118 34795 ft 470 kts 142°
2026-05-05 04:21 18.73724 -84.73888 34957 ft 471 kts 142°
2026-05-05 04:21 18.71206 -84.71653 35113 ft 473 kts 142°
2026-05-05 04:21 18.68723 -84.69449 35229 ft 474 kts 142°
2026-05-05 04:22 18.66185 -84.67199 35343 ft 477 kts 142°
2026-05-05 04:22 18.63641 -84.64943 35492 ft 478 kts 143°
2026-05-05 04:22 18.61094 -84.62686 35641 ft 479 kts 143°
2026-05-05 04:22 18.58538 -84.60422 35807 ft 479 kts 143°
2026-05-05 04:23 18.55981 -84.58157 35952 ft 480 kts 143°
2026-05-05 04:23 18.53417 -84.55887 36090 ft 481 kts 143°
2026-05-05 04:23 18.50842 -84.53609 36225 ft 483 kts 143°
2026-05-05 04:23 18.48261 -84.51327 36360 ft 484 kts 143°
2026-05-05 04:24 18.45715 -84.49075 36496 ft 484 kts 143°
2026-05-05 04:24 18.43127 -84.46788 36625 ft 485 kts 143°
2026-05-05 04:24 18.40530 -84.44494 36753 ft 486 kts 143°
2026-05-05 04:25 18.35335 -84.39907 37010 ft 488 kts 143°
2026-05-05 04:25 18.32754 -84.37629 37431 ft 479 kts 143°
2026-05-05 04:25 18.30247 -84.35414 37963 ft 470 kts 144°
2026-05-05 04:25 18.27758 -84.33215 38481 ft 460 kts 144°
2026-05-05 04:26 18.25330 -84.31071 38940 ft 450 kts 144°
2026-05-05 04:26 18.20490 -84.26814 38696 ft 464 kts 144°
2026-05-05 04:26 18.17990 -84.24622 38474 ft 471 kts 144°
2026-05-05 04:27 18.15461 -84.22402 38540 ft 472 kts 144°
2026-05-05 04:27 18.12990 -84.20226 38860 ft 465 kts 144°
2026-05-05 04:27 18.10535 -84.18062 39258 ft 456 kts 144°
2026-05-05 04:27 18.08114 -84.15929 39509 ft 452 kts 144°
2026-05-05 04:28 18.05665 -84.13778 39223 ft 462 kts 144°
2026-05-05 04:28 18.03185 -84.11606 38972 ft 471 kts 144°
2026-05-05 04:28 18.00649 -84.09385 38937 ft 474 kts 144°
2026-05-05 04:28 17.98125 -84.07169 39132 ft 470 kts 144°
2026-05-05 04:29 17.95629 -84.04975 39484 ft 462 kts 144°
2026-05-05 04:29 17.93187 -84.02828 39849 ft 454 kts 144°
2026-05-05 04:29 17.90765 -84.00684 39751 ft 460 kts 143°
2026-05-05 04:29 17.88290 -83.98483 39401 ft 471 kts 144°
2026-05-05 04:30 17.85774 -83.96287 39254 ft 476 kts 145°
2026-05-05 04:30 17.83228 -83.94119 39871 ft 458 kts 145°
2026-05-05 04:30 17.80806 -83.92043 40434 ft 446 kts 144°
2026-05-05 04:30 17.78451 -83.89938 40578 ft 445 kts 143°
2026-05-05 04:31 17.76118 -83.87830 40746 ft 436 kts 147°
2026-05-05 04:31 17.71247 -83.84236 41104 ft 423 kts 150°
2026-05-05 04:31 17.68806 -83.82440 40619 ft 438 kts 145°
2026-05-05 04:32 17.66260 -83.80575 39997 ft 450 kts 150°
2026-05-05 04:32 17.63721 -83.78781 40544 ft 424 kts 146°
2026-05-05 04:32 17.61527 -83.76865 41398 ft 409 kts 145°
2026-05-05 04:32 17.59256 -83.74930 40299 ft 438 kts 145°
2026-05-05 04:33 17.56839 -83.72698 38692 ft 487 kts 138°
2026-05-05 04:33 17.54373 -83.70056 37459 ft 520 kts 137°
2026-05-05 04:33 17.51834 -83.67330 37405 ft 519 kts 138°
2026-05-05 04:33 17.49283 -83.64731 38086 ft 502 kts 140°
2026-05-05 04:34 17.46782 -83.62329 38808 ft 488 kts 142°
2026-05-05 04:34 17.44235 -83.60002 39099 ft 483 kts 143°
2026-05-05 04:34 17.41656 -83.57727 39092 ft 485 kts 144°
2026-05-05 04:35 17.36412 -83.53207 39127 ft 488 kts 144°
2026-05-05 04:35 17.31170 -83.48698 39166 ft 492 kts 144°
2026-05-05 04:36 17.25899 -83.44137 39370 ft 490 kts 144°
2026-05-05 04:36 17.23276 -83.41861 39478 ft 489 kts 144°
2026-05-05 04:36 17.20653 -83.39585 39510 ft 490 kts 144°
2026-05-05 04:37 17.15394 -83.35024 39549 ft 492 kts 144°
2026-05-05 04:37 17.10102 -83.30437 39639 ft 493 kts 144°
2026-05-05 04:38 17.04816 -83.25861 39719 ft 493 kts 144°
2026-05-05 04:38 16.99519 -83.21279 39777 ft 494 kts 144°
2026-05-05 04:39 16.94248 -83.16723 39832 ft 494 kts 144°
2026-05-05 04:39 16.88949 -83.12145 39996 ft 491 kts 143°
2026-05-05 04:40 16.83679 -83.07596 40027 ft 492 kts 143°
2026-05-05 04:40 16.78397 -83.03041 40037 ft 493 kts 143°
2026-05-05 04:41 16.73134 -82.98506 40043 ft 493 kts 143°
2026-05-05 04:41 16.67835 -82.93942 40067 ft 493 kts 143°
2026-05-05 04:42 16.62535 -82.89381 40091 ft 493 kts 143°
2026-05-05 04:42 16.57259 -82.84845 40102 ft 493 kts 143°
2026-05-05 04:43 16.51961 -82.80292 40157 ft 492 kts 143°
2026-05-05 04:43 16.46669 -82.75748 40159 ft 493 kts 143°
2026-05-05 04:44 16.41370 -82.71202 40169 ft 493 kts 143°
2026-05-05 04:44 16.36159 -82.66734 40173 ft 494 kts 143°
2026-05-05 04:45 16.30840 -82.62177 40177 ft 494 kts 143°
2026-05-05 04:45 16.25521 -82.57623 40189 ft 494 kts 143°
2026-05-05 04:46 16.20240 -82.53105 40216 ft 493 kts 143°
2026-05-05 04:46 16.14953 -82.48584 40302 ft 491 kts 143°
2026-05-05 04:47 16.09667 -82.44068 40302 ft 491 kts 143°
2026-05-05 04:47 16.04377 -82.39552 40349 ft 490 kts 143°
2026-05-05 04:48 15.99152 -82.35094 40431 ft 488 kts 143°
2026-05-05 04:48 15.93895 -82.30613 40437 ft 488 kts 143°
2026-05-05 04:49 15.88640 -82.26137 40439 ft 488 kts 143°
2026-05-05 04:49 15.83387 -82.21665 40459 ft 487 kts 143°
2026-05-05 04:50 15.78147 -82.17207 40454 ft 487 kts 143°
2026-05-05 04:50 15.72935 -82.12777 40467 ft 486 kts 143°
2026-05-05 04:51 15.67698 -82.08328 40467 ft 486 kts 143°
2026-05-05 04:51 15.62468 -82.03887 40476 ft 486 kts 143°
2026-05-05 04:52 15.57261 -81.99470 40497 ft 485 kts 143°
2026-05-05 04:52 15.52034 -81.95039 40505 ft 485 kts 143°
2026-05-05 04:53 15.46804 -81.90608 40520 ft 484 kts 143°
2026-05-05 04:53 15.41586 -81.86189 40519 ft 484 kts 143°
2026-05-05 04:54 15.36370 -81.81776 40524 ft 484 kts 143°
2026-05-05 04:54 15.31181 -81.77389 40526 ft 483 kts 143°
2026-05-05 04:55 15.25973 -81.72988 40531 ft 483 kts 143°
2026-05-05 04:55 15.20758 -81.68584 40534 ft 483 kts 143°
2026-05-05 04:56 15.15547 -81.64187 40537 ft 483 kts 143°
2026-05-05 04:56 15.10338 -81.59794 40553 ft 482 kts 143°
2026-05-05 04:57 15.05140 -81.55413 40555 ft 482 kts 143°
2026-05-05 04:57 14.99941 -81.51035 40559 ft 482 kts 143°
2026-05-05 04:58 14.95619 -81.47397 40563 ft 482 kts 143°
2026-05-05 04:58 14.90421 -81.43024 40567 ft 481 kts 143°
2026-05-05 04:59 14.85219 -81.38651 40573 ft 481 kts 143°
2026-05-05 04:59 14.80017 -81.34281 40586 ft 481 kts 143°
2026-05-05 05:00 14.74828 -81.29924 40584 ft 481 kts 143°
2026-05-05 05:00 14.69636 -81.25568 40590 ft 481 kts 143°
2026-05-05 05:01 14.64435 -81.21206 40594 ft 481 kts 143°
2026-05-05 05:01 14.59270 -81.16878 40598 ft 481 kts 143°
2026-05-05 05:02 14.54077 -81.12529 40602 ft 480 kts 143°
2026-05-05 05:02 14.48888 -81.08186 40607 ft 480 kts 143°
2026-05-05 05:03 14.43691 -81.03839 40612 ft 480 kts 143°
2026-05-05 05:03 14.38498 -80.99498 40618 ft 480 kts 143°
2026-05-05 05:04 14.33305 -80.95159 40632 ft 480 kts 143°
2026-05-05 05:04 14.28141 -80.90848 40636 ft 480 kts 143°
2026-05-05 05:05 14.22945 -80.86513 40639 ft 480 kts 143°
2026-05-05 05:05 14.17749 -80.82180 40646 ft 480 kts 143°
2026-05-05 05:06 14.12561 -80.77856 40651 ft 480 kts 143°
2026-05-05 05:06 14.07398 -80.73556 40657 ft 480 kts 143°
2026-05-05 05:07 14.02208 -80.69236 40663 ft 479 kts 143°
2026-05-05 05:07 13.97009 -80.64911 40665 ft 479 kts 143°
2026-05-05 05:08 13.91847 -80.60619 40666 ft 479 kts 143°
2026-05-05 05:08 13.86664 -80.56313 40673 ft 479 kts 143°
2026-05-05 05:09 13.81479 -80.52007 40681 ft 478 kts 143°
2026-05-05 05:09 13.76297 -80.47707 40685 ft 478 kts 143°
2026-05-05 05:10 13.71113 -80.43407 40689 ft 478 kts 143°
2026-05-05 05:10 13.65927 -80.39108 40695 ft 478 kts 143°
2026-05-05 05:11 13.60750 -80.34820 40699 ft 478 kts 143°
2026-05-05 05:11 13.55605 -80.30560 40707 ft 477 kts 143°
2026-05-05 05:12 13.50429 -80.26276 40718 ft 477 kts 143°
2026-05-05 05:12 13.45253 -80.21995 40722 ft 477 kts 143°
2026-05-05 05:13 13.40070 -80.17712 40720 ft 477 kts 143°
2026-05-05 05:13 13.34895 -80.13436 40730 ft 477 kts 143°
2026-05-05 05:14 13.29746 -80.09186 40731 ft 477 kts 143°
2026-05-05 05:14 13.24578 -80.04921 40739 ft 477 kts 143°
2026-05-05 05:15 13.19403 -80.00654 40736 ft 477 kts 143°
2026-05-05 05:15 13.14255 -79.96410 40749 ft 476 kts 143°
2026-05-05 05:16 13.09095 -79.92159 40919 ft 471 kts 143°
2026-05-05 05:16 13.04005 -79.87968 40950 ft 470 kts 143°
2026-05-05 05:17 12.98907 -79.83773 40966 ft 470 kts 143°
2026-05-05 05:17 12.93799 -79.79573 40951 ft 470 kts 143°
2026-05-05 05:18 12.88716 -79.75395 40946 ft 469 kts 143°
2026-05-05 05:18 12.83622 -79.71210 40964 ft 469 kts 143°
2026-05-05 05:19 12.78514 -79.67016 40946 ft 469 kts 143°
2026-05-05 05:19 12.73436 -79.62848 40960 ft 468 kts 143°
2026-05-05 05:20 12.68359 -79.58684 40949 ft 468 kts 143°
2026-05-05 05:20 12.63286 -79.54526 40958 ft 468 kts 143°
2026-05-05 05:21 12.58196 -79.50355 40949 ft 468 kts 143°
2026-05-05 05:21 12.53108 -79.46189 40954 ft 468 kts 143°
2026-05-05 05:22 12.48018 -79.42022 40943 ft 468 kts 143°
2026-05-05 05:22 12.42958 -79.37883 40941 ft 468 kts 143°
2026-05-05 05:23 12.37858 -79.33712 40955 ft 467 kts 143°
2026-05-05 05:23 12.32801 -79.29580 40945 ft 467 kts 143°
2026-05-05 05:24 12.27735 -79.25442 40942 ft 467 kts 143°
2026-05-05 05:24 12.22661 -79.21299 40953 ft 466 kts 143°
2026-05-05 05:25 12.17591 -79.17162 40946 ft 466 kts 143°
2026-05-05 05:25 12.12521 -79.13027 40941 ft 466 kts 143°
2026-05-05 05:26 12.07440 -79.08886 40952 ft 466 kts 143°
2026-05-05 05:26 12.02403 -79.04781 40955 ft 466 kts 143°
2026-05-05 05:27 11.97331 -79.00651 40939 ft 466 kts 143°
2026-05-05 05:27 11.89727 -78.94462 40940 ft 465 kts 143°
2026-05-05 05:28 11.84666 -78.90346 40944 ft 465 kts 143°
2026-05-05 05:28 11.79628 -78.86250 40949 ft 465 kts 143°
2026-05-05 05:29 11.74563 -78.82134 40930 ft 464 kts 143°
2026-05-05 05:29 11.69509 -78.78029 40946 ft 464 kts 143°
2026-05-05 05:30 11.64451 -78.73924 40933 ft 464 kts 143°
2026-05-05 05:30 11.59426 -78.69846 40933 ft 464 kts 143°
2026-05-05 05:31 11.54377 -78.65752 40943 ft 463 kts 143°
2026-05-05 05:31 11.49320 -78.61652 40921 ft 463 kts 144°
2026-05-05 05:32 11.44276 -78.57566 40933 ft 463 kts 143°
2026-05-05 05:32 11.39264 -78.53506 40932 ft 462 kts 143°
2026-05-05 05:33 11.34223 -78.49425 40925 ft 462 kts 143°
2026-05-05 05:33 11.29182 -78.45347 40931 ft 462 kts 143°
2026-05-05 05:34 11.24146 -78.41274 40923 ft 462 kts 143°
2026-05-05 05:34 11.19103 -78.37197 40924 ft 462 kts 143°
2026-05-05 05:35 11.14064 -78.33126 40927 ft 462 kts 143°
2026-05-05 05:35 11.09060 -78.29084 40924 ft 462 kts 143°
2026-05-05 05:36 11.04022 -78.25017 40924 ft 462 kts 143°
2026-05-05 05:36 10.98984 -78.20952 40923 ft 462 kts 143°
2026-05-05 05:37 10.93944 -78.16887 40921 ft 462 kts 143°
2026-05-05 05:37 10.88930 -78.12844 40920 ft 461 kts 143°
2026-05-05 05:38 10.83898 -78.08790 40918 ft 461 kts 143°
2026-05-05 05:38 10.78859 -78.04731 40916 ft 461 kts 143°
2026-05-05 05:39 10.73817 -78.00671 40922 ft 461 kts 143°
2026-05-05 05:39 10.68775 -77.96614 40917 ft 461 kts 143°
2026-05-05 05:40 10.63772 -77.92589 40920 ft 461 kts 143°
2026-05-05 05:40 10.58738 -77.88541 40916 ft 461 kts 143°
2026-05-05 05:41 10.53726 -77.84513 40915 ft 461 kts 143°
2026-05-05 05:41 10.48697 -77.80473 40911 ft 460 kts 143°
2026-05-05 05:42 10.43666 -77.76433 40912 ft 460 kts 143°
2026-05-05 05:42 10.38627 -77.72388 40916 ft 460 kts 143°
2026-05-05 05:43 10.33628 -77.68377 40911 ft 460 kts 143°
2026-05-05 05:43 10.28591 -77.64337 40914 ft 460 kts 143°
2026-05-05 05:44 10.23573 -77.60315 40908 ft 460 kts 143°
2026-05-05 05:44 10.18545 -77.56285 40908 ft 460 kts 143°
2026-05-05 05:45 10.13533 -77.52270 40913 ft 460 kts 143°
2026-05-05 05:45 10.08514 -77.48251 40912 ft 460 kts 143°
2026-05-05 05:46 10.03495 -77.44234 40912 ft 460 kts 143°
2026-05-05 05:46 9.99316 -77.40891 40909 ft 460 kts 143°
2026-05-05 05:47 9.94283 -77.36866 40913 ft 460 kts 143°
2026-05-05 05:47 9.89261 -77.32851 40907 ft 460 kts 143°
2026-05-05 05:48 9.84238 -77.28836 40907 ft 460 kts 143°
2026-05-05 05:48 9.79212 -77.24822 40905 ft 460 kts 143°
2026-05-05 05:49 9.76667 -77.22790 40657 ft 466 kts 143°
2026-05-05 05:49 9.74121 -77.20758 40432 ft 471 kts 142°
2026-05-05 05:49 9.71538 -77.18696 40195 ft 472 kts 142°
2026-05-05 05:49 9.68949 -77.16630 39942 ft 468 kts 142°
2026-05-05 05:50 9.66431 -77.14620 39692 ft 462 kts 142°
2026-05-05 05:50 9.63910 -77.12609 39447 ft 456 kts 142°
2026-05-05 05:50 9.61425 -77.10626 39206 ft 450 kts 142°
2026-05-05 05:50 9.58991 -77.08685 38973 ft 446 kts 142°
2026-05-05 05:51 9.56550 -77.06738 38746 ft 442 kts 142°
2026-05-05 05:51 9.54154 -77.04828 38508 ft 439 kts 142°
2026-05-05 05:51 9.51778 -77.02935 38239 ft 435 kts 142°
2026-05-05 05:51 9.49380 -77.01024 37970 ft 433 kts 142°
2026-05-05 05:52 9.47040 -76.99160 37711 ft 430 kts 142°
2026-05-05 05:52 9.44680 -76.97280 37451 ft 428 kts 142°
2026-05-05 05:52 9.42362 -76.95434 37191 ft 426 kts 142°
2026-05-05 05:52 9.40021 -76.93570 36937 ft 424 kts 142°
2026-05-05 05:53 9.37718 -76.91736 36700 ft 422 kts 142°
2026-05-05 05:53 9.35403 -76.89893 36446 ft 421 kts 142°
2026-05-05 05:53 9.33102 -76.88062 36200 ft 419 kts 142°
2026-05-05 05:53 9.30846 -76.86267 35965 ft 418 kts 142°
2026-05-05 05:54 9.28565 -76.84452 35726 ft 417 kts 142°
2026-05-05 05:54 9.26278 -76.82633 35487 ft 415 kts 142°
2026-05-05 05:54 9.24016 -76.80834 35245 ft 414 kts 142°
2026-05-05 05:54 9.21739 -76.79023 35020 ft 413 kts 142°
2026-05-05 05:55 9.19513 -76.77253 34800 ft 409 kts 141°
2026-05-05 05:55 9.17274 -76.75473 34555 ft 404 kts 141°
2026-05-05 05:55 9.15094 -76.73741 34320 ft 398 kts 141°
2026-05-05 05:55 9.12906 -76.72002 34093 ft 393 kts 141°
2026-05-05 05:56 9.10767 -76.70303 33850 ft 389 kts 141°
2026-05-05 05:56 9.08675 -76.68641 33588 ft 386 kts 141°
2026-05-05 05:56 9.06568 -76.66967 33337 ft 383 kts 141°
2026-05-05 05:56 9.04479 -76.65307 33078 ft 380 kts 141°
2026-05-05 05:57 9.02403 -76.63659 32831 ft 378 kts 141°
2026-05-05 05:57 9.00342 -76.62022 32584 ft 377 kts 141°
2026-05-05 05:57 8.98282 -76.60387 32341 ft 375 kts 141°
2026-05-05 05:57 8.96226 -76.58755 32103 ft 375 kts 141°
2026-05-05 05:58 8.94178 -76.57130 31859 ft 374 kts 141°
2026-05-05 05:58 8.92129 -76.55504 31624 ft 374 kts 141°
2026-05-05 05:58 8.90108 -76.53901 31393 ft 374 kts 141°
2026-05-05 05:58 8.88054 -76.52271 31170 ft 375 kts 141°
2026-05-05 05:59 8.86002 -76.50643 30940 ft 377 kts 141°
2026-05-05 05:59 8.83936 -76.49004 30723 ft 378 kts 141°
2026-05-05 05:59 8.81859 -76.47358 30501 ft 379 kts 141°
2026-05-05 05:59 8.79786 -76.45715 30272 ft 380 kts 141°
2026-05-05 06:00 8.77698 -76.44059 30064 ft 381 kts 141°
2026-05-05 06:00 8.75608 -76.42403 29813 ft 382 kts 141°
2026-05-05 06:00 8.73511 -76.40742 29546 ft 383 kts 141°
2026-05-05 06:00 8.71408 -76.39075 29291 ft 383 kts 141°
2026-05-05 06:01 8.69330 -76.37429 29040 ft 384 kts 141°
2026-05-05 06:01 8.67223 -76.35760 28783 ft 384 kts 141°
2026-05-05 06:01 8.65119 -76.34093 28530 ft 385 kts 141°
2026-05-05 06:01 8.63009 -76.32422 28280 ft 385 kts 141°
2026-05-05 06:02 8.60896 -76.30749 28029 ft 385 kts 141°
2026-05-05 06:02 8.58786 -76.29079 27778 ft 385 kts 141°
2026-05-05 06:02 8.56675 -76.27408 27553 ft 385 kts 141°
2026-05-05 06:02 8.54561 -76.25735 27302 ft 386 kts 141°
2026-05-05 06:03 8.52441 -76.24057 27061 ft 386 kts 141°
2026-05-05 06:03 8.50357 -76.22408 26827 ft 386 kts 141°
2026-05-05 06:03 8.48236 -76.20730 26582 ft 387 kts 141°
2026-05-05 06:03 8.46113 -76.19051 26348 ft 387 kts 141°
2026-05-05 06:04 8.43995 -76.17376 26106 ft 387 kts 141°
2026-05-05 06:04 8.41870 -76.15696 25888 ft 387 kts 141°
2026-05-05 06:04 8.39761 -76.14029 25650 ft 383 kts 141°
2026-05-05 06:04 8.37673 -76.12378 25410 ft 377 kts 141°
2026-05-05 06:05 8.35639 -76.10771 25177 ft 372 kts 141°
2026-05-05 06:05 8.33627 -76.09181 24949 ft 367 kts 141°
2026-05-05 06:05 8.31619 -76.07594 24717 ft 362 kts 141°
2026-05-05 06:05 8.29662 -76.06048 24487 ft 358 kts 141°
2026-05-05 06:06 8.27709 -76.04505 24266 ft 353 kts 141°
2026-05-05 06:06 8.25787 -76.02986 24042 ft 349 kts 141°
2026-05-05 06:06 8.23887 -76.01486 23823 ft 345 kts 141°
2026-05-05 06:06 8.22012 -76.00005 23606 ft 341 kts 140°
2026-05-05 06:07 8.20148 -75.98532 23362 ft 337 kts 140°
2026-05-05 06:07 8.18308 -75.97079 23106 ft 335 kts 140°
2026-05-05 06:07 8.16477 -75.95634 22855 ft 333 kts 140°
2026-05-05 06:07 8.14671 -75.94208 22606 ft 332 kts 140°
2026-05-05 06:08 8.12852 -75.92772 22348 ft 331 kts 140°
2026-05-05 06:08 8.11044 -75.91344 22095 ft 329 kts 140°
2026-05-05 06:08 8.09242 -75.89921 21863 ft 328 kts 140°
2026-05-05 06:08 8.07447 -75.88505 21620 ft 327 kts 140°
2026-05-05 06:09 8.05657 -75.87091 21378 ft 326 kts 140°
2026-05-05 06:09 8.03866 -75.85678 21137 ft 326 kts 140°
2026-05-05 06:09 8.02068 -75.84259 20912 ft 329 kts 140°
2026-05-05 06:09 8.00252 -75.82827 20681 ft 333 kts 140°
2026-05-05 06:10 7.98306 -75.81611 20408 ft 337 kts 159°
2026-05-05 06:10 7.96018 -75.81069 20222 ft 336 kts 167°
2026-05-05 06:10 7.93706 -75.80667 19985 ft 337 kts 168°
2026-05-05 06:10 7.91394 -75.80287 19758 ft 336 kts 168°
2026-05-05 06:11 7.89080 -75.79908 19531 ft 336 kts 168°
2026-05-05 06:11 7.86776 -75.79525 19304 ft 336 kts 168°
2026-05-05 06:11 7.84465 -75.79135 19077 ft 335 kts 168°
2026-05-05 06:11 7.82200 -75.78748 18856 ft 335 kts 168°
2026-05-05 06:12 7.79902 -75.78353 18656 ft 334 kts 167°
2026-05-05 06:12 7.77611 -75.77957 18434 ft 334 kts 167°
2026-05-05 06:12 7.75321 -75.77559 18209 ft 334 kts 167°
2026-05-05 06:12 7.73032 -75.77161 17961 ft 333 kts 167°
2026-05-05 06:13 7.70753 -75.76765 17715 ft 333 kts 167°
2026-05-05 06:13 7.68470 -75.76367 17459 ft 333 kts 167°
2026-05-05 06:13 7.66187 -75.75969 17212 ft 333 kts 167°
2026-05-05 06:13 7.63903 -75.75571 16996 ft 333 kts 167°
2026-05-05 06:14 7.61617 -75.75173 16749 ft 333 kts 168°
2026-05-05 06:14 7.59324 -75.74774 16513 ft 333 kts 168°
2026-05-05 06:14 7.57057 -75.74379 16273 ft 334 kts 168°
2026-05-05 06:14 7.54773 -75.73982 16038 ft 334 kts 168°
2026-05-05 06:15 7.52483 -75.73583 15799 ft 333 kts 168°
2026-05-05 06:15 7.50184 -75.73183 15580 ft 333 kts 168°
2026-05-05 06:15 7.47897 -75.72785 15324 ft 332 kts 168°
2026-05-05 06:15 7.45624 -75.72390 15130 ft 331 kts 168°
2026-05-05 06:16 7.43345 -75.71993 15020 ft 334 kts 168°
2026-05-05 06:16 7.41075 -75.71597 14994 ft 335 kts 168°
2026-05-05 06:16 7.38777 -75.71197 14980 ft 335 kts 168°
2026-05-05 06:16 7.36481 -75.70797 14980 ft 334 kts 168°
2026-05-05 06:17 7.34186 -75.70398 15011 ft 335 kts 168°
2026-05-05 06:17 7.31902 -75.70001 15023 ft 333 kts 168°
2026-05-05 06:17 7.29613 -75.69603 15004 ft 332 kts 168°
2026-05-05 06:17 7.27333 -75.69207 15006 ft 332 kts 168°
2026-05-05 06:18 7.25057 -75.68811 15012 ft 331 kts 168°
2026-05-05 06:18 7.22784 -75.68416 15006 ft 332 kts 168°
2026-05-05 06:18 7.20499 -75.68018 15011 ft 333 kts 168°
2026-05-05 06:18 7.18220 -75.67622 15010 ft 333 kts 168°
2026-05-05 06:19 7.15959 -75.67229 15005 ft 333 kts 168°
2026-05-05 06:19 7.13671 -75.66832 15006 ft 333 kts 168°
2026-05-05 06:19 7.11380 -75.66431 14956 ft 334 kts 169°
2026-05-05 06:19 7.09140 -75.66756 15059 ft 331 kts 196°
2026-05-05 06:20 7.06867 -75.66878 15038 ft 331 kts 161°
2026-05-05 06:20 7.04678 -75.66079 15189 ft 338 kts 158°
2026-05-05 06:20 7.02439 -75.65334 15063 ft 336 kts 162°
2026-05-05 06:20 7.00193 -75.64718 15033 ft 333 kts 165°
2026-05-05 06:21 6.97962 -75.64205 15035 ft 331 kts 166°
2026-05-05 06:21 6.95705 -75.63750 14984 ft 332 kts 167°
2026-05-05 06:21 6.93423 -75.63325 15018 ft 336 kts 168°
2026-05-05 06:21 6.91118 -75.62913 15045 ft 338 kts 168°
2026-05-05 06:22 6.88793 -75.62507 15037 ft 339 kts 168°
2026-05-05 06:22 6.86460 -75.62101 15037 ft 339 kts 168°
2026-05-05 06:22 6.84134 -75.61699 15034 ft 338 kts 168°
2026-05-05 06:22 6.81838 -75.61302 15038 ft 337 kts 168°
2026-05-05 06:23 6.79525 -75.60903 15031 ft 336 kts 168°
2026-05-05 06:23 6.77226 -75.60512 14985 ft 334 kts 168°
2026-05-05 06:23 6.74939 -75.60125 14735 ft 331 kts 168°
2026-05-05 06:23 6.72687 -75.59744 14501 ft 326 kts 168°
2026-05-05 06:24 6.70467 -75.59368 14269 ft 321 kts 169°
2026-05-05 06:24 6.68277 -75.58996 14047 ft 316 kts 169°
2026-05-05 06:24 6.66122 -75.58630 13813 ft 312 kts 168°
2026-05-05 06:24 6.63985 -75.58266 13558 ft 307 kts 169°
2026-05-05 06:25 6.61916 -75.57915 13307 ft 304 kts 168°
2026-05-05 06:25 6.59843 -75.57563 13094 ft 300 kts 168°
2026-05-05 06:25 6.57773 -75.57210 13064 ft 302 kts 169°
2026-05-05 06:25 6.55710 -75.56859 13037 ft 299 kts 168°
2026-05-05 06:26 6.53662 -75.56510 13042 ft 298 kts 168°
2026-05-05 06:26 6.51610 -75.56161 13046 ft 299 kts 168°
2026-05-05 06:26 6.49578 -75.55815 13041 ft 300 kts 168°
2026-05-05 06:26 6.47498 -75.55461 13041 ft 300 kts 168°
2026-05-05 06:27 6.45448 -75.55113 13036 ft 301 kts 168°
2026-05-05 06:27 6.41318 -75.54412 13034 ft 301 kts 168°
2026-05-05 06:27 6.39262 -75.54085 13033 ft 301 kts 172°
2026-05-05 06:28 6.37164 -75.53974 13054 ft 302 kts 177°
2026-05-05 06:28 6.35060 -75.53955 13032 ft 302 kts 178°
2026-05-05 06:28 6.32948 -75.53954 13035 ft 302 kts 178°
2026-05-05 06:28 6.30865 -75.53946 13177 ft 300 kts 177°
2026-05-05 06:29 6.28772 -75.53928 13192 ft 299 kts 178°
2026-05-05 06:29 6.26710 -75.53901 13201 ft 298 kts 177°
2026-05-05 06:29 6.24634 -75.53870 13185 ft 295 kts 176°
2026-05-05 06:29 6.22576 -75.53835 13190 ft 295 kts 176°
2026-05-05 06:30 6.20542 -75.53800 13168 ft 295 kts 176°
2026-05-05 06:30 6.18488 -75.53764 13190 ft 296 kts 176°
2026-05-05 06:30 6.16412 -75.53727 13212 ft 301 kts 176°
2026-05-05 06:30 6.14307 -75.53689 13193 ft 302 kts 176°
2026-05-05 06:31 6.12203 -75.53655 13181 ft 300 kts 177°
2026-05-05 06:31 6.10140 -75.53661 13301 ft 298 kts 178°
2026-05-05 06:31 6.08066 -75.53685 13295 ft 296 kts 178°
2026-05-05 06:31 6.06023 -75.53707 13281 ft 298 kts 178°
2026-05-05 06:32 6.03924 -75.53729 13300 ft 302 kts 178°
2026-05-05 06:32 6.01822 -75.53752 13308 ft 302 kts 178°
2026-05-05 06:32 5.99713 -75.53772 13172 ft 304 kts 178°
2026-05-05 06:32 5.97605 -75.53792 13068 ft 299 kts 178°
2026-05-05 06:33 5.95555 -75.53812 12910 ft 296 kts 178°
2026-05-05 06:33 5.93511 -75.53833 12683 ft 285 kts 178°
2026-05-05 06:33 5.91624 -75.53673 12496 ft 264 kts 159°
2026-05-05 06:33 5.90147 -75.52745 12313 ft 243 kts 133°
2026-05-05 06:34 5.89176 -75.51413 12138 ft 234 kts 116°
2026-05-05 06:34 5.88604 -75.49857 11996 ft 243 kts 103°
2026-05-05 06:34 5.88488 -75.48728 11879 ft 247 kts 88°
2026-05-05 06:34 5.88741 -75.47023 11725 ft 246 kts 82°
2026-05-05 06:35 5.89046 -75.45329 11609 ft 247 kts 81°
2026-05-05 06:35 5.89436 -75.43653 11561 ft 247 kts 69°
2026-05-05 06:35 5.90521 -75.42319 11576 ft 252 kts 36°
2026-05-05 06:35 5.92222 -75.41802 11587 ft 263 kts
2026-05-05 06:36 5.94012 -75.41872 11578 ft 254 kts 359°
2026-05-05 06:36 5.95677 -75.41982 11501 ft 225 kts 359°
2026-05-05 06:36 5.97169 -75.42071 11379 ft 203 kts
2026-05-05 06:36 5.98500 -75.42143 11250 ft 181 kts
2026-05-05 06:37 5.99741 -75.42205 11148 ft 179 kts
2026-05-05 06:37 6.00974 -75.42219 10941 ft 176 kts
2026-05-05 06:37 6.02185 -75.42224 10523 ft 179 kts
2026-05-05 06:37 6.03426 -75.42230 10349 ft 178 kts
2026-05-05 06:38 6.04743 -75.42235 10390 ft 195 kts
2026-05-05 06:38 6.06070 -75.42241 10180 ft 190 kts
2026-05-05 06:38 6.07387 -75.42248 9748 ft 185 kts
2026-05-05 06:38 6.08640 -75.42258 9380 ft 173 kts
2026-05-05 06:39 6.09831 -75.42286 8915 ft 171 kts
2026-05-05 06:39 6.11003 -75.42313 8519 ft 165 kts
2026-05-05 06:39 6.12139 -75.42293 8044 ft 165 kts
2026-05-05 06:39 6.13280 -75.42294 7574 ft 159 kts 358°
2026-05-05 06:40 6.14336 -75.42302 7217 ft 148 kts
2026-05-05 06:40 6.15326 -75.42306 6982 ft 131 kts 359°
2026-05-05 06:40 6.15841 -75.42309 6978 ft 30 kts
2026-05-05 06:40 6.16042 -75.42307 6978 ft 28 kts 357°
2026-05-05 06:41 6.16229 -75.42314 6978 ft 26 kts 360°
2026-05-05 06:41 6.16403 -75.42312 6983 ft 24 kts
2026-05-05 06:41 6.16567 -75.42310 6986 ft 23 kts 359°
2026-05-05 06:41 6.16725 -75.42313 6995 ft 22 kts 359°
2026-05-05 06:42 6.16876 -75.42317 7002 ft 22 kts 352°
2026-05-05 06:42 6.17017 -75.42363 7012 ft 21 kts 336°
2026-05-05 06:42 6.17142 -75.42433 7014 ft 15 kts 329°
2026-05-05 06:42 6.17183 -75.42519 7012 ft 15 kts 270°
2026-05-05 06:43 6.17219 -75.42611 7016 ft 15 kts 339°
2026-05-05 06:43 6.17306 -75.42663 7017 ft 15 kts 307°
2026-05-05 06:43 6.17361 -75.42758 7017 ft 16 kts 295°
2026-05-05 06:43 6.17390 -75.42860 7020 ft 12 kts 279°
2026-05-05 06:44 6.17399 -75.42928 7018 ft 0 kts 275°
2026-05-05 06:44 6.17399 -75.42930 7018 ft 3 kts 274°
2026-05-05 06:44 6.17392 -75.42961 7018 ft 3 kts 230°
2026-05-05 06:45 6.17369 -75.42973 7019 ft 4 kts 203°
2026-05-05 06:45 6.17355 -75.42976 7017 ft 1 kts 192°